ED1ZAI-13 Weather Reports


Display with metric or nautical units.
time (UTC)temp
F
wind
direction
speed
MPH
gust
MPH
rain 1hr
in
rain 24hr
in
rain mn
in
humidity
%
barometer
mb
20260507055935 43 30 1.0 2.0 0.00 0.00 0.00 76 1010.8
20260507054935 43 32 1.0 2.0 0.00 0.00 0.00 76 1010.7
20260507053934 43 30 1.0 2.0 0.00 0.00 0.00 76 1010.6
20260507053125 43 30 1.0 2.0 0.00 0.00 0.00 76 1010.6
20260507052125 42 32 1.0 2.0 0.00 0.00 0.00 77 1010.6
20260507051124 42 30 1.0 2.0 0.00 0.00 0.00 77 1010.6
20260507050124 42 30 2.0 3.0 0.00 0.00 0.00 76 1010.6
20260507045124 43 32 1.0 2.0 0.00 0.00 0.00 76 1010.6
20260507044124 43 32 1.0 2.0 0.00 0.00 0.00 77 1010.7
20260507043124 42 32 1.0 2.0 0.00 0.00 0.00 78 1010.7
20260507042124 42 32 1.0 2.0 0.00 0.00 0.00 78 1010.7
20260507041123 42 32 0.0 0.0 0.00 0.00 0.00 77 1010.7
20260507040125 42 30 0.0 1.0 0.00 0.00 0.00 78 1010.8
20260507035125 42 30 1.0 2.0 0.00 0.00 0.00 79 1010.8
20260507034125 42 30 1.0 2.0 0.00 0.00 0.00 79 1010.9
20260507033123 42 32 0.0 1.0 0.00 0.00 0.00 80 1010.8
20260507032125 42 30 2.0 3.0 0.00 0.00 0.00 80 1010.8
20260507031125 42 28 2.0 4.0 0.00 0.00 0.00 80 1010.9
20260507030124 42 27 2.0 3.0 0.00 0.00 0.00 79 1010.9
20260507025124 43 26 1.0 2.0 0.00 0.00 0.00 79 1010.9
20260507024124 43 26 1.0 2.0 0.00 0.00 0.00 78 1010.9
20260507023125 43 24 1.0 2.0 0.00 0.00 0.00 78 1010.9
20260507022125 44 26 1.0 2.0 0.00 0.00 0.00 77 1011.0
20260507021125 44 24 0.0 0.0 0.00 0.00 0.00 76 1011.0
20260507020124 45 26 0.0 0.0 0.00 0.00 0.00 77 1011.1
20260507015124 45 24 0.0 0.0 0.00 0.00 0.00 76 1011.1
20260507014124 45 26 0.0 0.0 0.00 0.00 0.00 74 1010.9
20260507013123 45 24 0.0 0.0 0.00 0.00 0.00 75 1011.0
20260507012125 45 26 0.0 0.0 0.00 0.00 0.00 75 1011.1
20260507011125 45 26 0.0 0.0 0.00 0.00 0.00 77 1011.2
20260507010124 45 26 0.0 0.0 0.00 0.00 0.00 78 1011.3
20260507005124 45 26 0.0 0.0 0.00 0.00 0.00 77 1011.4
20260507004124 45 26 1.0 2.0 0.00 0.00 0.00 77 1011.4
20260507003125 45 24 1.0 2.0 0.00 0.00 0.00 76 1011.4
20260507002124 45 26 1.0 2.0 0.00 0.00 0.00 77 1011.5
20260507001124 46 76 0.0 0.0 0.00 0.00 0.00 75 1011.5
20260507000125 46 24 0.0 1.0 0.00 0.00 0.00 77 1011.6
20260506235124 46 35 0.0 0.0 0.00 0.00 0.00 76 1011.7
20260506234124 46 33 0.0 0.0 0.00 0.00 0.00 77 1011.7
20260506233124 46 35 0.0 0.0 0.00 0.00 0.00 77 1011.6
20260506232123 46 35 0.0 0.0 0.00 0.00 0.00 75 1011.6
20260506231125 46 35 0.0 0.0 0.00 0.00 0.00 77 1011.6
20260506230125 47 33 0.0 0.0 0.00 0.00 0.00 76 1011.6
20260506225125 46 34 0.0 0.0 0.00 0.00 0.00 78 1011.5
20260506224124 46 35 0.0 1.0 0.00 0.00 0.00 79 1011.6
20260506223124 46 35 2.0 3.0 0.00 0.00 0.00 78 1011.5
20260506222124 46 33 1.0 3.0 0.00 0.00 0.00 79 1011.5
20260506221125 46 35 2.0 3.0 0.00 0.00 0.00 79 1011.5
20260506220125 46 31 1.0 3.0 0.00 0.00 0.00 78 1011.6
20260506210124 49 27 0.0 0.0 0.00 0.00 0.00 72 1011.2
20260506205123 49 27 0.0 0.0 0.00 0.00 0.00 72 1011.2
20260506204125 48 33 1.0 2.0 0.00 0.00 0.00 71 1011.2
20260506203125 48 30 1.0 2.0 0.00 0.00 0.00 71 1011.1
20260506202124 49 36 1.0 3.0 0.00 0.00 0.00 70 1011.0
20260506201124 49 31 0.0 2.0 0.00 0.00 0.00 69 1010.9
20260506200124 50 31 1.0 3.0 0.00 0.00 0.00 68 1010.8
20260506195125 50 37 1.0 3.0 0.00 0.00 0.00 67 1010.5
20260506194124 51 41 0.0 0.0 0.00 0.00 0.00 65 1010.5
20260506193124 51 41 0.0 2.0 0.00 0.00 0.00 66 1010.5
20260506192123 51 36 1.0 3.0 0.00 0.00 0.00 66 1010.4
20260506191125 51 28 2.0 4.0 0.00 0.00 0.00 64 1010.2
20260506190125 52 30 2.0 3.0 0.00 0.00 0.00 61 1010.2
20260506185125 53 30 2.0 4.0 0.00 0.00 0.00 59 1010.0
20260506184124 54 37 3.0 4.0 0.00 0.00 0.00 58 1009.9
20260506183124 54 36 3.0 4.0 0.00 0.00 0.00 56 1009.7
20260506182124 56 57 2.0 5.0 0.00 0.00 0.00 54 1009.6
20260506181124 55 34 3.0 5.0 0.00 0.00 0.00 57 1009.6
20260506180123 56 31 1.0 3.0 0.00 0.00 0.00 51 1009.5
20260506175125 55 32 2.0 4.0 0.00 0.00 0.00 54 1009.5
20260506174125 58 27 1.0 3.0 0.00 0.00 0.00 48 1009.3
20260506173125 60 248 1.0 5.0 0.00 0.00 0.00 44 1009.4
20260506172124 61 10 1.0 3.0 0.00 0.00 0.00 43 1009.4
20260506171124 66 41 0.0 4.0 0.00 0.00 0.00 39 1009.4
20260506170124 60 131 2.0 5.0 0.00 0.00 0.00 44 1009.6
20260506165125 60 14 0.0 1.0 0.00 0.00 0.00 46 1009.6
20260506164125 58 84 0.0 1.0 0.00 0.00 0.00 47 1009.7
20260506163125 59 57 0.0 1.0 0.00 0.00 0.00 45 1009.5
20260506162124 60 60 0.0 1.0 0.00 0.00 0.00 44 1009.5
20260506161124 60 238 0.0 2.0 0.00 0.00 0.00 45 1009.5
20260506160124 63 9 0.0 1.0 0.00 0.00 0.00 40 1009.6
20260506155124 63 239 1.0 5.0 0.00 0.00 0.00 38 1009.5
20260506154125 62 213 0.0 1.0 0.00 0.00 0.00 34 1009.5
20260506153125 62 213 0.0 2.0 0.00 0.00 0.00 33 1009.5
20260506152125 65 141 0.0 1.0 0.00 0.00 0.00 34 1009.6
20260506151125 61 157 0.0 2.0 0.00 0.00 0.00 35 1009.6
20260506150124 62 84 0.0 2.0 0.00 0.00 0.00 34 1009.8
20260506145124 61 217 0.0 1.0 0.00 0.00 0.00 36 1009.7
20260506144124 59 217 1.0 3.0 0.00 0.00 0.00 36 1009.8
20260506143125 60 91 1.0 4.0 0.00 0.00 0.00 36 1009.8
20260506142125 65 90 1.0 5.0 0.00 0.00 0.00 30 1009.9
20260506141125 60 216 1.0 4.0 0.00 0.00 0.00 34 1010.2
20260506140124 63 224 0.0 2.0 0.00 0.00 0.00 29 1010.2
20260506135124 60 237 1.0 4.0 0.00 0.00 0.00 33 1010.3
20260506134124 62 232 2.0 5.0 0.00 0.00 0.00 34 1010.3
20260506133124 67 281 1.0 3.0 0.00 0.00 0.00 28 1010.3
20260506132125 71 359 0.0 2.0 0.00 0.00 0.00 25 1010.4
20260506131125 65 228 0.0 3.0 0.00 0.00 0.00 30 1010.5
20260506130125 66 246 0.0 0.0 0.00 0.00 0.00 31 1010.5
20260506125124 61 288 2.0 4.0 0.00 0.00 0.00 30 1010.6
20260506124124 67 72 1.0 5.0 0.00 0.00 0.00 28 1010.6
20260506123124 60 230 0.0 1.0 0.00 0.00 0.00 36 1010.8
20260506122124 59 227 0.0 3.0 0.00 0.00 0.00 36 1010.8
20260506121125 58 84 2.0 6.0 0.00 0.00 0.00 35 1010.9
20260506120125 64 98 0.0 4.0 0.00 0.00 0.00 33 1010.8
20260506115125 58 138 1.0 6.0 0.00 0.00 0.00 38 1011.1
20260506114124 58 214 1.0 4.0 0.00 0.00 0.00 38 1011.1
20260506113124 55 207 3.0 8.0 0.00 0.00 0.00 43 1011.2
20260506112124 58 268 2.0 6.0 0.00 0.00 0.00 39 1011.3
20260506111124 57 154 1.0 4.0 0.00 0.00 0.00 40 1011.2
20260506110125 54 100 1.0 5.0 0.00 0.00 0.00 44 1011.3
20260506105125 54 220 2.0 4.0 0.00 0.00 0.00 42 1011.4
20260506104125 58 230 1.0 5.0 0.00 0.00 0.00 39 1011.4
20260506103125 54 255 1.0 4.0 0.00 0.00 0.00 44 1011.5
20260506102124 60 128 0.0 2.0 0.00 0.00 0.00 39 1011.5
20260506101124 56 218 0.0 0.0 0.00 0.00 0.00 43 1011.6
20260506100126 54 210 1.0 3.0 0.00 0.00 0.00 48 1011.7
20260506095125 56 279 0.0 4.0 0.00 0.00 0.00 42 1011.6
20260506094125 56 131 1.0 3.0 0.00 0.00 0.00 43 1011.5
20260506093125 55 154 1.0 3.0 0.00 0.00 0.00 44 1011.6
20260506092125 55 168 1.0 3.0 0.00 0.00 0.00 42 1011.4
20260506091124 59 306 0.0 2.0 0.00 0.00 0.00 41 1011.4
20260506090124 56 261 0.0 3.0 0.00 0.00 0.00 43 1011.5
20260506085124 58 359 0.0 1.0 0.00 0.00 0.00 42 1011.4
20260506084123 58 359 0.0 1.0 0.00 0.00 0.00 38 1011.3
20260506082901 56 237 0.0 2.0 0.00 0.00 0.00 41 1011.4
20260506081901 55 280 0.0 1.0 0.00 0.00 0.00 49 1011.4
20260506080900 55 288 0.0 1.0 0.00 0.00 0.00 47 1011.4
20260506072901 49 292 0.0 0.0 0.00 0.00 0.00 66 1011.6
20260506071901 45 290 0.0 0.0 0.00 0.00 0.00 71 1011.7
20260506070901 43 290 0.0 0.0 0.00 0.00 0.00 73 1011.7
20260506061901 41 292 0.0 0.0 0.00 0.00 0.00 75 1011.5
20260506060900 41 292 0.0 0.0 0.00 0.00 0.00 75 1011.5